This is the latest recevied weather packets stored in our database for station/object K9ABJ. If no packets are shown the sender has not sent any weather packets the latest 10 day(s).
| Time | Temp. | Humidity | Pressure | Rain* | Wind** | Luminosity | Snow |
|---|---|---|---|---|---|---|---|
| 1787629829 | 13.89° C | 93% | 1019.1 hPa | 0 mm | - | 0 W/m² | - |
| 1787629529 | 13.89° C | 92% | 1019.1 hPa | 0 mm | - | 0 W/m² | - |
| 1787629226 | 13.89° C | 92% | 1018.8 hPa | 0 mm | - | 0 W/m² | - |
| 1787628926 | 14.44° C | 92% | 1019.1 hPa | 0 mm | - | 0 W/m² | - |
| 1787628621 | 14.44° C | 91% | 1019.1 hPa | 0 mm | - | 0 W/m² | - |
| 1787628316 | 14.44° C | 91% | 1019 hPa | 0 mm | - | 0 W/m² | - |
| 1787628012 | 14.44° C | 91% | 1019.1 hPa | 0 mm | - | 0 W/m² | - |
| 1787627707 | 15° C | 90% | 1019.1 hPa | 0 mm | - | 0 W/m² | - |
| 1787627403 | 15° C | 90% | 1019 hPa | 0 mm | - | 0 W/m² | - |
| 1787627098 | 15° C | 89% | 1018.8 hPa | 0 mm | - | 0 W/m² | - |
| 1787626794 | 15° C | 89% | 1018.9 hPa | 0 mm | - | 0 W/m² | - |
| 1787626489 | 15° C | 88% | 1018.8 hPa | 0 mm | - | 0 W/m² | - |
| 1787626188 | 15.56° C | 87% | 1018.9 hPa | 0 mm | - | 0 W/m² | - |
| 1787625883 | 15.56° C | 86% | 1018.9 hPa | 0 mm | - | 0 W/m² | - |
| 1787625580 | 16.11° C | 85% | 1018.7 hPa | 0 mm | - | 0 W/m² | - |
| 1787625275 | 16.11° C | 84% | 1019 hPa | 0 mm | - | 0 W/m² | - |
| 1787624972 | 16.11° C | 84% | 1019 hPa | 0 mm | - | 0 W/m² | - |
| 1787624672 | 16.67° C | 83% | 1018.6 hPa | 0 mm | - | 0 W/m² | - |
| 1787624367 | 16.67° C | 82% | 1018.8 hPa | 0 mm | - | 0 W/m² | - |
| 1787624063 | 16.67° C | 81% | 1018.6 hPa | 0 mm | - | 0 W/m² | - |
| 1787623762 | 17.22° C | 80% | 1018.6 hPa | 0 mm | - | 0 W/m² | - |
| 1787623461 | 17.22° C | 80% | 1018.5 hPa | 0 mm | - | 0 W/m² | - |
| 1787623160 | 17.78° C | 79% | 1018.4 hPa | 0 mm | - | 0 W/m² | - |
| 1787622856 | 17.22° C | 79% | 1018.5 hPa | 0 mm | - | 0 W/m² | - |
| 1787622553 | 17.78° C | 79% | 1018.5 hPa | 0 mm | - | 0 W/m² | - |
* Rain latest hour (hover to see other rain measurements)
** Current wind speed in m/s (hover to see current wind gust speed)